Location: Unspecified
(0.0000°N, 0.0000°E)
Time: 00:37:46
(UTC+00:00)

CZ-3B DEB - Pass Details

Date: 21 February 2026
Orbit: 1033 x 41494 km, 26.9° (Epoch: 29 July)

Event Time Altitude Azimuth Distance (km) Brightness Sun altitude
Rises 14:26:57 0° 265° (W) 5,274 ? 55.3°
Reaches altitude 10° 14:29:15 10° 258° (WSW) 4,873 ? 54.7°
Maximum altitude 22:02:38 76° 197° (SSW) 40,991 ? -55.9°
Enters shadow 01:15:21 59° 275° (W) 24,712 ? -71.5°
Exits shadow 02:27:57 59° 326° (NNW) 10,734 ? -55.0°
Drops below altitude 10° 02:56:59 10° 44° (NE) 6,096 ? -48.1°
Sets 02:59:42 0° 50° (NE) 6,344 ? -47.4°
